{"data":{"norad_id":45408,"intl_designator":"2020-019BA","name":"STARLINK-1278","alt_names":[],"object_type":"PAYLOAD","status":"ACTIVE","operator":null,"country":"US","launch_date":"2020-03-18","launch_site_code":"AFETR","launch_vehicle":null,"mission":null,"orbit_class":"UNKNOWN","rcs_meters":null,"size_class":null,"mass_kg":null,"dimensions":null,"purposes":["comms"],"wikipedia_slug":null,"has_3d_model":false,"image_url":null,"decayed_at":null,"tle_current":{"epoch":"2026-05-25T05:08:42.724032Z","epoch_age_seconds":63428,"freshness":"FRESH","line1":"1 45408U 20019BA  26145.21438338  .00083979  00000+0  75670-3 0  9996","line2":"2 45408  53.0393 116.1573 0007710  33.8003 326.3502 15.67457441341926","mean_motion":15.67457441,"eccentricity":0.000771,"inclination_deg":53.0393,"raan_deg":116.1573,"arg_perigee_deg":33.8003,"mean_anomaly_deg":326.3502,"bstar":0.0007567,"rev_number":34192,"period_min":91.86852301912,"perigee_km":360.98056153265,"apogee_km":371.38029901013,"semimajor_km":6744.3174302714,"source":"CELESTRAK","updated_at":"2026-05-25T13:38:16.419394Z"}}}